Weather History for Pian Rosa, Italy

Change the Weather History Date:

Tuesday, March 19, 2013

  Actual Average Record
Temperature  
Mean Temperature 6 °F -  
Max Temperature 11 °F 21 °F 26 °F (2005)
Min Temperature 1 °F 10 °F -4 °F (2007)
Degree Days  
Heating Degree Days 59    
Moisture  
Dew Point -4 °F    
Average Humidity 62    
Maximum Humidity 92    
Minimum Humidity 25    
Precipitation  
Precipitation 0.00 in - - ()
Sea Level Pressure  
Sea Level Pressure 29.36 in    
Wind  
Wind Speed 14 mph ()    
Max Wind Speed 31 mph    
Max Gust Speed -    
Visibility 4.6 miles    
Events Fog , Snow    
Averages and records for this station are not official NWS values.
T = Trace of Precipitation, MM = Missing Value Source: Averaged Metar Reports

Daily Weather History Graph

Daily Weather History Graph

Search for Another Location

Airport:

Trip Planner

Search our weather history database for the weather conditions in past years. The results will help you decide how hot, cold, wet, or windy it might be!

Date:

Astronomy

Mar. 19, 2013 Rise Set
Actual Time 6:34 AM CET 6:40 PM CET
Civil Twilight 6:04 AM CET 7:10 PM CET
Nautical Twilight 5:29 AM CET 7:45 PM CET
Astronomical Twilight 4:53 AM CET 8:21 PM CET
Moon 10:52 AM CET (3/19) 1:32 AM CET (3/19)
Length of Visible Light 13h 05m
Length of Day
12h 06m
Waxing Crescent, 48% of the Moon is Illuminated
Mar 19
Waxing Crescent
Mar 19
First Quarter
Mar 27
Full
Apr 3
Last Quarter
Apr 10
New

Hourly Weather History & Observations

Time (CET) Temp. Windchill Dew Point Humidity Pressure Visibility Wind Dir Wind Speed Gust Speed Precip Events Conditions
12:55 AM 5.0 °F -19.4 °F -0.4 °F 78% 29.15 in 0.5 mi WNW 31.1 mph - N/A Fog Light Freezing Fog
1:00 AM 4 °F - -1 °F 71%  in 0 mi WNW 31.1 mph - - Fog Heavy Fog
1:55 AM 5.0 °F -17.1 °F -0.4 °F 78% 29.21 in 0.5 mi WNW 24.2 mph - N/A Fog Light Freezing Fog
2:55 AM 5.0 °F -13.6 °F -0.4 °F 78% 29.21 in 0.1 mi West 16.1 mph - N/A Fog , Snow Light Snow
3:55 AM 3.2 °F -13.1 °F -0.4 °F 85% 29.21 in 0.1 mi North 11.5 mph - N/A Fog , Snow Light Snow
4:00 AM 4 °F - 0 °F 76%  in 0 mi North 11.5 mph - - Snow Light Snow
4:55 AM 3.2 °F -11.3 °F -2.2 °F 78% 29.24 in 0.1 mi NNW 9.2 mph - N/A Fog , Snow Light Snow
5:55 AM 3.2 °F -15.9 °F -0.4 °F 85% 29.27 in 0.3 mi North 16.1 mph - N/A Fog Light Freezing Fog
6:55 AM 1.4 °F -11.3 °F -0.4 °F 92% 29.30 in 0.3 mi West 6.9 mph - N/A Fog Light Freezing Fog
7:00 AM 2 °F - -1 °F 80%  in 0 mi West 6.9 mph - - Fog Heavy Fog
7:55 AM 3.2 °F -12.2 °F -0.4 °F 85% 29.33 in 0.5 mi North 10.4 mph - N/A Fog Light Freezing Fog
8:55 AM 5.0 °F -10.8 °F 1.4 °F 85% 29.33 in 0.5 mi NE 11.5 mph - N/A Fog Light Freezing Fog
9:55 AM 3.2 °F -10.3 °F -4.0 °F 72% 29.30 in 6.2 mi NW 8.1 mph - N/A   Partly Cloudy
10:00 AM 4 °F - -3 °F 60%  in 19 mi NW 8.1 mph - - Fog Light Fog
10:55 AM 5.0 °F -5.6 °F -2.2 °F 72% 29.36 in 6.2 mi West 5.8 mph - N/A   Partly Cloudy
11:55 AM 6.8 °F - -4.0 °F 61% 29.39 in 6.2 mi Variable 1.2 mph - N/A   Partly Cloudy
12:55 PM 8.6 °F - -5.8 °F 52% 29.42 in 6.2 mi Calm Calm - N/A   Partly Cloudy
1:00 PM 9 °F - -5 °F 37%  in 19 mi Calm Calm - -   Partly Cloudy
1:55 PM 10.4 °F 0.8 °F -5.8 °F 48% 29.44 in 6.2 mi WSW 5.8 mph - N/A   Partly Cloudy
2:55 PM 10.4 °F -0.4 °F -2.2 °F 57% 29.44 in 6.2 mi SSW 6.9 mph - N/A   Partly Cloudy
3:55 PM 8.6 °F -9.5 °F -2.2 °F 62% 29.42 in 6.2 mi SSW 17.3 mph - N/A   Partly Cloudy
4:00 PM 9 °F - -2 °F 47%  in 25 mi SSW 17.3 mph - -   Scattered Clouds
4:55 PM 6.8 °F -14.7 °F -2.2 °F 67% 29.42 in 6.2 mi SSW 24.2 mph - N/A   Partly Cloudy
5:55 PM 6.8 °F -14.3 °F -9.4 °F 48% 29.44 in 6.2 mi SSW 23.0 mph - N/A   Scattered Clouds
6:55 PM 6.8 °F -13.4 °F -11.2 °F 44% 29.44 in 6.2 mi SSW 20.7 mph - N/A   Scattered Clouds
7:00 PM 6 °F - -11 °F 30%  in 9 mi SSW 20.7 mph - -   Mostly Cloudy
7:55 PM 5.0 °F -14.2 °F -11.2 °F 47% 29.44 in 6.2 mi SSW 17.3 mph - N/A   Scattered Clouds
8:55 PM 5.0 °F -6.9 °F -11.2 °F 47% 29.47 in - SSW 6.9 mph - N/A   Clear
10:00 PM 7 °F - -12 °F 25%  in 6 mi SSW 9.2 mph - -   Clear
10:55 PM 6.8 °F -8.6 °F -11.2 °F 44% 29.47 in - SSW 11.5 mph - N/A   Clear
11:55 PM 6.8 °F -9.3 °F -11.2 °F 44% 29.47 in - SSW 12.7 mph - N/A   Clear